"Pseudo-MPEC" for P21Ok7w

Created 2023 Nov 30 6:22:06 UT using Find_Orb

Click here for an explanation of pseudo-MPECs

 
 Astrometry: 
     P21Ok7w* C2023 11 18bC89k_n6/JXos%x3od'E!,daN2ubq]_0PQIDAXAstrometryHyMeF52
     P21Ok7w  C2023 11 18L,=_'@G]Lfcg:uredacted;bVF;0PFZOg8w@@FLZ+(;K*xQpad6[F52
     P21Ok7w  C2023 11 18@][5me\Mn#@Fx:bDfv*I8/SjaIRY3h:-%OBs;X/6@/4Zr2!HpJ:WF52
     P21Ok7w  C2023 11 18+A7mY;_Dv2_U2Ik-XclickYg*kB-bF!B#`c]Qc*1X^J#[\jH?5URF52
     P21Ok7w  C2023 11 18nw69sCU@yww9:5k$?V6$990here)Ort'fqYj;idn@b.[wS9p/OtiF51
     P21Ok7w KC2023 11 19Cg_SJ#\BwbH\BmQ1WQs.2pa%AJU;9R]x_-!APS_l!u4n'yfor'QyH21
     P21Ok7w KC2023 11 19i=J*CkTR`G*CEC+d5S$'explanationUy#;)aF)PSZaDhm^5Q(4tH21
     P21Ok7w KC2023 11 19358HB)QpEUP;^8;ABYN#tLEg1[9ol^+('G1X=1gH`AG(!P_u+=3@H21

Station data:
(F51) Pan-STARRS 1, Haleakala  (N20.707234 W156.255910)  US/Hawaii.
   Observers J. Bulger, T. Lowe, A. Schultz, M. Willman. Measurers K.
   Chambers, S. Chastel, T. de Boer, L. Denneau, J. Fairlamb, H. Flewelling,
   M. Huber, C.-C. Lin, E. Magnier, Y. Ramanjooloo, R. Wainscoat, R. Weryk.
   1.8-m Ritchey-Chrétien + CCD.
(F52) Pan-STARRS 2, Haleakala  (N20.707382 W156.255910)  US/Hawaii.
   Observers J. Bulger, T. Dukes, T. Lowe, A. Schultz, M. Willman. Measurers
   K. Chambers, S. Chastel, T. de Boer, L. Denneau, J. Fairlamb, H.
   Flewelling, M. Huber, C.-C. Lin, E. Magnier, Y. Ramanjooloo, R. Wainscoat,
   R. Weryk. 1.8-m Ritchey-Chrétien + CCD.
(H21) Astronomical Research Observatory, Westfield  (N39.483054 W87.968270)
   US/Illinois.  Observer R. Holmes. Measurers S. Foglia, L. Buzzi, T.
   Linder, R. Holmes. 0.76-m f/3.0 astrograph + CCD0.81-m f/4.0 astrograph +
   CCD0.61-m f/4.5 astrograph + CCD0.40-m f/5.32 astrograph + CCD.

Orbital elements:  P21Ok7w
   Perihelion 2023 Sep 7.02764 +/- 52 TT =  0:39:48 (JD 2460194.52764)
Epoch 2023 Nov 19.0 TT = JDT 2460267.5   Earth MOID: 0.6339      AutoNEOCP
M  15.00098446 +/- 15               (J2000 ecliptic)
n   0.20557078 +/- 0.0913           Peri.  318.68355 +/- 28
a   2.84333779 +/- 0.841            Node    78.96235 +/- 1.1
e   0.4576900 +/- 0.191             Incl.   34.24493 +/- 4.1
P   4.79                   H 18.79  G  0.15   U 11.1  SR
q 1.54197051 +/- 0.116    Q 4.14470507 +/- 1.85
From 8 observations 2023 Nov. 18-19 (20.2 hr); mean residual 0".13
Residuals in arcseconds: 
231118 F52  .04-  .03+    231118 F52  .04-  .03-    231119 H21  .10-  .14-    
231118 F52  .14-  .00     231118 F51  .30+  .13+    231119 H21  .09+  .01+    
231118 F52  .03-  .12-    231119 H21  .28-  .02+    

Ephemerides (geocentric):
Date (UTC) HH   RA             Dec           delta  r     elong  mag " sig PA
---- --------  ------------   ------------  ------ ------ -----  --- --------
2023 11 30 06  07 12 26.778   +30 42 15.57  .84223 1.7244 141.0 20.6  754   4
2023 11 30 07  07 12 25.003   +30 43 50.90  .84215 1.7245 141.1 20.6  760   4
2023 11 30 08  07 12 23.222   +30 45 26.24  .84207 1.7247 141.1 20.6  766   4
2023 11 30 09  07 12 21.434   +30 47 01.60  .84200 1.7249 141.1 20.6  772   4
2023 11 30 10  07 12 19.639   +30 48 36.97  .84192 1.7250 141.2 20.6  778   4
2023 11 30 11  07 12 17.838   +30 50 12.34  .84184 1.7252 141.2 20.6  784   4
2023 11 30 12  07 12 16.031   +30 51 47.74  .84177 1.7254 141.3 20.6  790   4
2023 11 30 13  07 12 14.218   +30 53 23.14  .84169 1.7255 141.3 20.6  796   4
2023 11 30 14  07 12 12.397   +30 54 58.55  .84162 1.7257 141.4 20.6  802   4
2023 11 30 15  07 12 10.571   +30 56 33.98  .84154 1.7259 141.4 20.6  808   4
2023 11 30 16  07 12 08.738   +30 58 09.41  .84147 1.7260 141.5 20.6  814   4
2023 11 30 17  07 12 06.899   +30 59 44.86  .84140 1.7262 141.5 20.6  820   4
2023 11 30 18  07 12 05.053   +31 01 20.32  .84132 1.7263 141.6 20.6  826   4
2023 11 30 19  07 12 03.201   +31 02 55.79  .84125 1.7265 141.6 20.6  833   4
2023 11 30 20  07 12 01.342   +31 04 31.27  .84118 1.7267 141.7 20.6  839   4
2023 11 30 21  07 11 59.477   +31 06 06.75  .84111 1.7268 141.7 20.6  845   4
2023 11 30 22  07 11 57.605   +31 07 42.25  .84103 1.7270 141.7 20.6  851   4
2023 11 30 23  07 11 55.727   +31 09 17.76  .84096 1.7272 141.8 20.6  858   4
2023 12 01 00  07 11 53.843   +31 10 53.28  .84089 1.7273 141.8 20.6  864   4
2023 12 01 01  07 11 51.952   +31 12 28.81  .84082 1.7275 141.9 20.6  870   4
2023 12 01 02  07 11 50.054   +31 14 04.35  .84075 1.7277 141.9 20.6  877   4
2023 12 01 03  07 11 48.151   +31 15 39.90  .84068 1.7278 142.0 20.6  883   4
2023 12 01 04  07 11 46.240   +31 17 15.45  .84062 1.7280 142.0 20.6  890   4
2023 12 01 05  07 11 44.324   +31 18 51.02  .84055 1.7282 142.1 20.6  896   4
2023 12 01 06  07 11 42.401   +31 20 26.59  .84048 1.7283 142.1 20.6  902   4
2023 12 01 07  07 11 40.471   +31 22 02.18  .84041 1.7285 142.2 20.6  909   4
2023 12 01 08  07 11 38.535   +31 23 37.77  .84035 1.7287 142.2 20.6  915   4
2023 12 01 09  07 11 36.592   +31 25 13.37  .84028 1.7288 142.2 20.6  922   5
2023 12 01 10  07 11 34.643   +31 26 48.97  .84021 1.7290 142.3 20.6  929   5
2023 12 01 11  07 11 32.688   +31 28 24.59  .84015 1.7291 142.3 20.6  935   5
2023 12 01 12  07 11 30.726   +31 30 00.21  .84008 1.7293 142.4 20.6  942   5
2023 12 01 13  07 11 28.758   +31 31 35.84  .84002 1.7295 142.4 20.6  948   5
2023 12 01 14  07 11 26.783   +31 33 11.48  .83995 1.7296 142.5 20.6  955   5
2023 12 01 15  07 11 24.802   +31 34 47.13  .83989 1.7298 142.5 20.6  962   5
2023 12 01 16  07 11 22.814   +31 36 22.78  .83983 1.7300 142.6 20.6  968   5
2023 12 01 17  07 11 20.820   +31 37 58.44  .83976 1.7301 142.6 20.6  975   5
2023 12 01 18  07 11 18.819   +31 39 34.11  .83970 1.7303 142.7 20.6  982   5
2023 12 01 19  07 11 16.812   +31 41 09.78  .83964 1.7305 142.7 20.6  989   5
2023 12 01 20  07 11 14.799   +31 42 45.46  .83958 1.7306 142.7 20.6  996   5
2023 12 01 21  07 11 12.779   +31 44 21.14  .83952 1.7308 142.8 20.6 1002   5
2023 12 01 22  07 11 10.752   +31 45 56.83  .83946 1.7310 142.8 20.6 1009   5
2023 12 01 23  07 11 08.720   +31 47 32.53  .83940 1.7311 142.9 20.6 1016   5
2023 12 02 00  07 11 06.680   +31 49 08.23  .83934 1.7313 142.9 20.6 1023   5
2023 12 02 01  07 11 04.634   +31 50 43.94  .83928 1.7315 143.0 20.6 1030   5
2023 12 02 02  07 11 02.582   +31 52 19.66  .83922 1.7316 143.0 20.6 1037   5
2023 12 02 03  07 11 00.523   +31 53 55.37  .83916 1.7318 143.1 20.6 1044   5
2023 12 02 04  07 10 58.458   +31 55 31.10  .83910 1.7320 143.1 20.6 1051   5
2023 12 02 05  07 10 56.386   +31 57 06.83  .83904 1.7321 143.2 20.6 1058   5